• In Latvia
  • List of Countries
  • For 7 days
  • Water Temperature
  • Satellite Maps
  • Weather Map
  • Weather Widgets
  • user-avatar
    Login

    Hourly Weather Saldus

    Today, 22 October, Monday

    Time Temperature Precipitation Wind Pressure Humidity
    00:00 +8°C° 0 mm 5 mps 757 mmHg 89%
    01:00 +8°C° 0 mm 5 mps 757 mmHg 87%
    02:00 +8°C° 0 mm 5 mps 757 mmHg 85%
    03:00 +9°C° 0 mm 6 mps 756 mmHg 85%
    04:00 +9°C° 0 mm 6 mps 755 mmHg 85%
    05:00 +9°C° 0 mm 6 mps 755 mmHg 85%
    06:00 +9°C° 0.3 mm 6 mps 754 mmHg 85%
    07:00 +10°C° 0.3 mm 6 mps 754 mmHg 86%
    08:00 +10°C° 0.3 mm 6 mps 754 mmHg 87%
    09:00 +10°C° 0.9 mm 6 mps 753 mmHg 88%
    10:00 +10°C° 0.9 mm 6 mps 753 mmHg 88%
    11:00 +10°C° 0.9 mm 6 mps 753 mmHg 89%
    12:00 +10°C° 1 mm 5 mps 752 mmHg 87%
    13:00 +10°C° 1 mm 5 mps 752 mmHg 85%
    14:00 +10°C° 1 mm 4 mps 752 mmHg 83%
    15:00 +10°C° 0.1 mm 4 mps 752 mmHg 80%
    16:00 +8°C° 0.1 mm 4 mps 752 mmHg 78%
    17:00 +7°C° 0.1 mm 4 mps 752 mmHg 76%
    18:00 +8°C° 0 mm 3 mps 752 mmHg 76%
    19:00 +7°C° 0 mm 3 mps 752 mmHg 76%
    20:00 +5°C° 0 mm 3 mps 753 mmHg 76%
    21:00 +5°C° 0 mm 3 mps 752 mmHg 76%
    22:00 +5°C° 0 mm 3 mps 752 mmHg 76%
    23:00 +5°C° 0 mm 3 mps 752 mmHg 76%

    Tomorrow, 23 October, Tuesday

    Time Temperature Precipitation Wind Pressure Humidity
    00:00 +4°C° 0 mm 3 mps 752 mmHg 78%
    01:00 +4°C° 0 mm 3 mps 752 mmHg 79%
    02:00 +4°C° 0 mm 3 mps 751 mmHg 81%
    03:00 +4°C° 0 mm 3 mps 750 mmHg 82%
    04:00 +4°C° 0 mm 3 mps 750 mmHg 82%
    05:00 +4°C° 0 mm 3 mps 749 mmHg 83%
    06:00 +4°C° 0 mm 3 mps 748 mmHg 83%
    07:00 +4°C° 0 mm 4 mps 747 mmHg 82%
    08:00 +4°C° 0 mm 4 mps 746 mmHg 82%
    09:00 +5°C° 0.1 mm 5 mps 744 mmHg 80%
    10:00 +6°C° 0.1 mm 5 mps 743 mmHg 78%
    11:00 +7°C° 0.1 mm 6 mps 741 mmHg 76%
    12:00 +6°C° 1.3 mm 7 mps 739 mmHg 79%
    13:00 +5°C° 1.3 mm 7 mps 737 mmHg 82%
    14:00 +5°C° 1.3 mm 8 mps 735 mmHg 84%
    15:00 +5°C° 1.1 mm 7 mps 734 mmHg 86%
    16:00 +5°C° 1.1 mm 6 mps 732 mmHg 89%
    17:00 +6°C° 1.1 mm 4 mps 731 mmHg 91%
    18:00 +6°C° 0.3 mm 4 mps 730 mmHg 91%
    19:00 +7°C° 0.3 mm 4 mps 730 mmHg 91%
    20:00 +7°C° 0.3 mm 4 mps 729 mmHg 91%
    21:00 +6°C° 0.1 mm 4 mps 729 mmHg 89%
    22:00 +6°C° 0.1 mm 4 mps 728 mmHg 88%
    23:00 +5°C° 0.1 mm 4 mps 728 mmHg 87%

    Day after tomorrow, 24 October, Wednesday

    Time Temperature Precipitation Wind Pressure Humidity
    00:00 +5°C° 0.1 mm 4 mps 728 mmHg 87%
    01:00 +5°C° 0.1 mm 4 mps 727 mmHg 86%
    02:00 +5°C° 0.1 mm 4 mps 727 mmHg 86%
    03:00 +5°C° 0.1 mm 4 mps 727 mmHg 85%
    04:00 +5°C° 0.1 mm 5 mps 727 mmHg 84%
    05:00 +5°C° 0.1 mm 5 mps 727 mmHg 83%
    06:00 +4°C° 0.2 mm 6 mps 728 mmHg 82%
    07:00 +4°C° 0.2 mm 7 mps 728 mmHg 81%
    08:00 +5°C° 0.2 mm 8 mps 729 mmHg 80%
    09:00 +5°C° 0.8 mm 8 mps 730 mmHg 80%
    10:00 +5°C° 0.8 mm 8 mps 731 mmHg 81%
    11:00 +5°C° 0.8 mm 9 mps 732 mmHg 81%
    12:00 +5°C° 0.6 mm 9 mps 733 mmHg 79%
    13:00 +5°C° 0.6 mm 9 mps 735 mmHg 77%
    14:00 +5°C° 0.6 mm 9 mps 736 mmHg 75%
    15:00 +5°C° 0.3 mm 9 mps 737 mmHg 73%
    16:00 +4°C° 0.3 mm 8 mps 738 mmHg 71%
    17:00 +4°C° 0.3 mm 7 mps 740 mmHg 69%
    18:00 +4°C° 0.1 mm 6 mps 741 mmHg 71%
    19:00 +3°C° 0.1 mm 6 mps 741 mmHg 73%
    20:00 +3°C° 0.1 mm 5 mps 742 mmHg 75%
    21:00 +3°C° 0 mm 5 mps 743 mmHg 77%
    22:00 +4°C° 0 mm 4 mps 743 mmHg 79%
    23:00 +4°C° 0 mm 4 mps 743 mmHg 82%

    25 October, Thursday

    Time Temperature Precipitation Wind Pressure Humidity
    00:00 +4°C° 0 mm 4 mps 744 mmHg 82%
    01:00 +4°C° 0 mm 4 mps 744 mmHg 82%
    02:00 +4°C° 0 mm 4 mps 744 mmHg 82%
    03:00 +3°C° 0 mm 4 mps 744 mmHg 82%
    04:00 +3°C° 0 mm 3 mps 744 mmHg 82%
    05:00 +3°C° 0 mm 3 mps 744 mmHg 82%
    06:00 +3°C° 0 mm 3 mps 743 mmHg 83%
    07:00 +3°C° 0 mm 3 mps 743 mmHg 83%
    08:00 +2°C° 0 mm 3 mps 743 mmHg 83%
    09:00 +4°C° 0 mm 3 mps 743 mmHg 77%
    10:00 +5°C° 0 mm 3 mps 742 mmHg 70%
    11:00 +7°C° 0 mm 3 mps 742 mmHg 64%
    12:00 +8°C° 0 mm 3 mps 742 mmHg 62%
    13:00 +8°C° 0 mm 3 mps 741 mmHg 60%
    14:00 +8°C° 0 mm 2 mps 741 mmHg 58%
    15:00 +8°C° 0 mm 2 mps 741 mmHg 64%
    16:00 +7°C° 0 mm 2 mps 740 mmHg 69%
    17:00 +7°C° 0 mm 1 mps 740 mmHg 74%
    18:00 +6°C° 0.1 mm 2 mps 740 mmHg 78%
    19:00 +6°C° 0.1 mm 2 mps 740 mmHg 81%
    20:00 +5°C° 0.1 mm 2 mps 740 mmHg 85%
    21:00 +5°C° 0 mm 2 mps 740 mmHg 85%
    22:00 +5°C° 0 mm 2 mps 740 mmHg 86%
    23:00 +4°C° 0 mm 3 mps 740 mmHg 87%

    26 October, Friday

    Time Temperature Precipitation Wind Pressure Humidity
    00:00 +4°C° 0 mm 2 mps 740 mmHg 87%
    01:00 +4°C° 0 mm 2 mps 741 mmHg 87%
    02:00 +4°C° 0 mm 2 mps 741 mmHg 87%
    03:00 +4°C° 0 mm 2 mps 741 mmHg 87%
    04:00 +4°C° 0 mm 2 mps 741 mmHg 87%
    05:00 +4°C° 0 mm 2 mps 741 mmHg 87%
    06:00 +4°C° 0 mm 2 mps 740 mmHg 88%
    07:00 +4°C° 0 mm 2 mps 740 mmHg 88%
    08:00 +4°C° 0 mm 2 mps 740 mmHg 89%
    09:00 +5°C° 0 mm 2 mps 740 mmHg 83%
    10:00 +7°C° 0 mm 2 mps 740 mmHg 78%
    11:00 +8°C° 0 mm 2 mps 740 mmHg 72%
    12:00 +9°C° 0 mm 3 mps 740 mmHg 70%
    13:00 +9°C° 0 mm 3 mps 739 mmHg 68%
    14:00 +10°C° 0 mm 3 mps 739 mmHg 67%
    15:00 +8°C° 0.8 mm 4 mps 739 mmHg 74%
    16:00 +8°C° 0.8 mm 4 mps 738 mmHg 81%
    17:00 +7°C° 0.8 mm 4 mps 738 mmHg 89%
    18:00 +7°C° 0.5 mm 5 mps 737 mmHg 88%
    19:00 +8°C° 0.5 mm 5 mps 737 mmHg 88%
    20:00 +8°C° 0.5 mm 6 mps 736 mmHg 87%
    21:00 +8°C° 0.3 mm 6 mps 736 mmHg 85%
    22:00 +8°C° 0.3 mm 6 mps 736 mmHg 82%
    23:00 +8°C° 0.3 mm 6 mps 737 mmHg 80%

    27 October, Saturday

    Time Temperature Precipitation Wind Pressure Humidity
    00:00 +7°C° 0 mm 5 mps 737 mmHg 79%
    01:00 +6°C° 0 mm 5 mps 737 mmHg 78%
    02:00 +5°C° 0 mm 5 mps 738 mmHg 78%
    03:00 +5°C° 0 mm 4 mps 738 mmHg 79%
    04:00 +5°C° 0 mm 4 mps 738 mmHg 80%
    05:00 +4°C° 0 mm 4 mps 739 mmHg 81%
    06:00 +4°C° 0 mm 4 mps 739 mmHg 82%
    07:00 +4°C° 0 mm 4 mps 739 mmHg 82%
    08:00 +4°C° 0 mm 4 mps 739 mmHg 83%
    09:00 +5°C° 0 mm 4 mps 740 mmHg 77%
    10:00 +6°C° 0 mm 5 mps 740 mmHg 72%
    11:00 +8°C° 0 mm 5 mps 741 mmHg 66%
    12:00 +8°C° 0 mm 5 mps 741 mmHg 65%
    13:00 +8°C° 0 mm 4 mps 741 mmHg 65%
    14:00 +8°C° 0 mm 4 mps 742 mmHg 64%
    15:00 +8°C° 0 mm 3 mps 742 mmHg 70%
    16:00 +7°C° 0 mm 2 mps 742 mmHg 75%
    17:00 +8°C° 0 mm 1 mps 742 mmHg 80%
    18:00 +7°C° 0.1 mm 1 mps 743 mmHg 82%
    19:00 +7°C° 0.1 mm 1 mps 743 mmHg 84%
    20:00 +7°C° 0.1 mm 1 mps 743 mmHg 86%
    21:00 +7°C° 0.1 mm 1 mps 743 mmHg 86%
    22:00 +6°C° 0.1 mm 0 mps 743 mmHg 87%
    23:00 +5°C° 0.1 mm 0 mps 744 mmHg 88%

    28 October, Sunday

    Time Temperature Precipitation Wind Pressure Humidity
    00:00 +6°C° 0 mm 1 mps 744 mmHg 88%
    01:00 +6°C° 0 mm 1 mps 744 mmHg 89%
    02:00 +6°C° 0 mm 1 mps 744 mmHg 90%
    03:00 +4°C° 0 mm 2 mps 745 mmHg 91%
    04:00 +4°C° 0 mm 2 mps 745 mmHg 92%
    05:00 +4°C° 0 mm 2 mps 745 mmHg 93%
    06:00 +4°C° 0 mm 2 mps 746 mmHg 93%
    07:00 +4°C° 0 mm 2 mps 746 mmHg 93%
    08:00 +4°C° 0 mm 2 mps 747 mmHg 93%
    09:00 +3°C° 0 mm 3 mps 747 mmHg 88%
    10:00 +4°C° 0 mm 3 mps 748 mmHg 83%
    11:00 +5°C° 0 mm 4 mps 749 mmHg 78%
    12:00 +5°C° 0 mm 4 mps 749 mmHg 76%
    13:00 +5°C° 0 mm 4 mps 749 mmHg 75%
    14:00 +5°C° 0 mm 5 mps 749 mmHg 73%
    15:00 +5°C° 0 mm 4 mps 750 mmHg 75%
    16:00 +4°C° 0 mm 4 mps 750 mmHg 77%
    17:00 +4°C° 0 mm 4 mps 750 mmHg 79%
    18:00 +4°C° 0 mm 4 mps 751 mmHg 79%
    19:00 +3°C° 0 mm 4 mps 751 mmHg 79%
    20:00 +3°C° 0 mm 4 mps 751 mmHg 79%
    21:00 +3°C° 0 mm 4 mps 752 mmHg 79%
    22:00 +3°C° 0 mm 4 mps 752 mmHg 78%
    23:00 +1°C° 0 mm 4 mps 752 mmHg 78%
    Show more